www.pogodaiklimat.ru

Погода и климат >> Архив погоды >> Россия >> Татарстан >> Казань


АРХИВ ПОГОДЫ в Казани

Время (UTC), дата Ветер
(напр.,м/с)
 
Видим.   Явления Облачность Т
(С)
Тd
(С)
f
(%)
Тe
(С)
Тes
(С)
Комфортность P
(гПа)
Po
(гПа)
Тmin
(С)
Tmax
(С)
R
(мм)
R24
(мм)
S
(см)
12 14.05 З 2 10 км 8/6 1000 м
[Cb calv Ac cast]
+29.6 +11.0 32 +30 +32 жарко 1012.3 999.1
15 14.05 С 2 10 км гроза без осадков 9/8 600 м
[Cb calv Ac cast]
+22.8 +12.0 51 +25 +26 комфорт 1012.9 999.4 +29.9
18 14.05 С 2 10 км гроза без осадков {ливн. осадки} 9/9 600 м
[Cb calv]
+20.1 +13.4 65 +23 +23 комфорт 1013.4 999.8
21 14.05 СВ 1 10 км в посл. час гроза {ливн. осадки} 9/5 600 м
[Cb calv Ac trans]
+18.2 +13.5 74 +20 +20 тепло 1013.8 1000.1
00 15.05 С 1 10 км {гроза, ливн. осадки} 6/0
[Ac trans]
+16.2 +14.5 90 +17 +17 тепло 1014.0 1000.2
03 15.05 В 1 10 км 8/4 1000 м
[Cb cap Ac lent]
+17.2 +14.8 86 +18 +19 тепло 1014.7 1001.0 +15.6 19
06 15.05 В 3 10 км 9/3 600 м
[Cb cap Ac trans]
+18.3 +14.7 80 +19 +22 тепло 1015.3 1001.6
09 15.05 ЮВ 2 10 км 9/9 600 м
[Cu Sc]
+21.3 +15.5 70 +25 +26 комфорт 1015.1 1001.5
12 15.05 В 1 10 км 10/3 600 м
[Cb cap Cs]
+21.9 +15.0 65 +25 +31 комфорт 1015.2 1001.6
15 15.05 ЮВ 2 10 км 5/1 600 м
[Sc diur, vesp Cs]
+22.3 +14.5 61 +26 +27 жарко 1014.5 1000.9 +23.0
18 15.05 В 3 10 км 5/0
[Cs]
+18.2 +15.1 82 +19 +19 тепло 1015.2 1001.4
21 15.05 В 2 10 км зарница 10/0
[As op]
+16.3 +14.7 90 +16 +16 тепло 1014.3 1000.4
00 16.05 С 1 4000 м гроза, ливневой дождь 10/10 600 м
[Cb calv]
+15.7 +15.7 100 +16 +16 тепло 1013.5 999.6
03 16.05 З 1 4000 м дождь {гроза, ливн. осадки} 10/10 300 м
[Frnb Ns]
+15.7 +15.7 100 +16 +16 тепло 1014.2 1000.4 +15.5 7
06 16.05 З 2 10 км {гроза, ливн. осадки} 9/8 600 м
[Cb calv Ac trans]
+17.3 +15.2 87 +18 +19 тепло 1014.0 1000.2
09 16.05 З 2 10 км 9/8 600 м
[Cb cap Ac trans]
+19.1 +13.8 71 +21 +23 комфорт 1013.8 1000.1
12 16.05 СЗ 1 10 км слаб. ливневой дождь 10/8 600 м
[Cb cap As trans]
+16.1 +15.6 97 +17 +18 по сезону 1013.7 999.9
15 16.05 С 3 10 км слаб. морось 10/10 300 м
[St]
+12.9 +10.8 87 +11 +11 прохладно 1015.9 1001.9 +19.8 5
18 16.05 С 3 10 км {ливн. осадки, морось} 9/9 600 м
[Sc]
+10.5 +6.5 76 +9 +9 прохладно 1017.7 1003.5
21 16.05 СЗ 1 10 км {морось} 8/0
[Ci]
+9.0 +6.6 85 +8 +8 по сезону 1018.2 1003.9
00 17.05 С 1 10 км 4/0
[Ac lent]
+7.3 +3.8 78 +7 +7 по сезону 1019.1 1004.7
03 17.05 СЗ 2 10 км ясно +8.1 +3.0 70 +6 +9 прохладно 1020.2 1005.8 +6.4 0.0
06 17.05 С 2 10 км 8/8 600 м
[Cu hum]
+11.8 +1.1 48 +11 +13 по сезону 1020.2 1006.0
09 17.05 С 2 10 км 8/8 600 м
[Cu hum]
+13.3 +0.3 41 +13 +16 по сезону 1019.4 1005.3
12 17.05 СЗ 2 10 км 8/8 600 м
[Cu hum]
+13.0 -0.8 39 +13 +14 прохладно 1018.5 1004.5
15 17.05 СЗ 2 10 км 8/0
[Ac trans]
+13.5 -1.6 35 +13 +14 по сезону 1017.8 1003.7 +14.7
18 17.05 З 1 10 км 3/0
[Ci fib]
+10.8 +2.1 55 +11 +11 по сезону 1017.0 1002.8
21 17.05 З 2 10 км 8/0
[Ac trans Ci fib]
+10.0 +2.8 61 +9 +9 по сезону 1014.8 1000.6
00 18.05 З 2 10 км 10/0
[As op]
+10.4 +2.5 58 +9 +9 по сезону 1013.7 999.5
03 18.05 СЗ 2 10 км 3/0
[Ac trans]
+10.3 +3.8 64 +9 +11 по сезону 1013.1 999.0 +7.9
06 18.05 С 2 10 км 9/6 600 м
[Sc diur, vesp Ac cast]
+11.6 +1.4 50 +11 +13 по сезону 1011.9 997.9
09 18.05 СЗ 4
{10}
10 км {ливн. осадки} 8/8 600 м
[Cb cap Ac cast]
+12.5 +0.5 44 +11 +13 прохладно 1011.2 997.2
12 18.05 С 3
{12}
10 км {ливн. осадки} 8/8 600 м
[Cb cap]
+12.2 -2.3 36 +11 +13 холодно 1011.3 997.2
15 18.05 СЗ 2
{10}
10 км 8/0
[Ac lent]
+9.9 -3.9 38 +9 +10 холодно 1012.3 998.1 +13.3
18 18.05 СЗ 1 10 км 3/0
[Ac lent]
+8.5 -3.1 44 +8 +8 прохладно 1011.7 997.5
21 18.05 З 1 10 км 10/6 600 м
[Sc Ac und]
+8.1 +1.1 61 +8 +8 по сезону 1010.0 995.8
00 19.05 С 2
{10}
10 км 9/3 600 м
[Sc Ac trans]
+5.2 +1.2 75 +3 +3 холодно 1010.8 996.4
03 19.05 СЗ 2 10 км 8/8 600 м
[Cb cap]
+4.9 +0.3 72 +3 +3 очень
холодно
1011.3 996.9 +4.6
06 19.05 СЗ 3 10 км 8/8 600 м
[Sc]
+8.0 -0.9 53 +6 +8 очень
холодно
1011.1 996.9
09 19.05 СЗ 3
{10}
10 км 9/9 600 м
[Sc]
+8.0 -2.8 46 +6 +7 очень
холодно
1011.7 997.5
12 19.05 СЗ 3
{11}
10 км 10/10 600 м
[Sc]
+7.4 -3.3 47 +5 +5 очень
холодно
1013.3 999.0
15 19.05 СЗ 2
{10}
10 км 9/9 600 м
[Sc]
+7.2 -2.3 51 +6 +6 очень
холодно
1014.4 1000.1 +8.2
18 19.05 СЗ 2
{11}
10 км 10/10 600 м
[Sc]
+6.4 -2.3 54 +5 +5 холодно 1016.0 1001.6
21 19.05 СЗ 2 10 км 10/10 600 м
[Sc]
+6.0 -1.2 60 +4 +4 холодно 1016.3 1001.9
00 20.05 СЗ 1 10 км 10/10 600 м
[Sc]
+5.9 -0.1 65 +5 +5 прохладно 1016.3 1001.8
03 20.05 СЗ 2 10 км 9/9 600 м
[Sc]
+5.9 +0.5 68 +4 +4 холодно 1017.2 1002.8 +5.6
06 20.05 СЗ 2 10 км 9/9 600 м
[Sc diur, vesp]
+7.0 +0.1 61 +5 +6 очень
холодно
1017.4 1003.0
09 20.05 СЗ 2 10 км 8/8 600 м
[Sc diur, vesp]
+10.4 -0.9 45 +9 +12 холодно 1017.1 1002.9
12 20.05 СЗ 2 10 км 8/6 600 м
[Cb cap Ac cast]
+12.0 -1.3 40 +11 +14 холодно 1017.1 1003.0
15 20.05 З 3 10 км 8/6 600 м
[Cb cap Ac cast]
+12.0 +0.1 44 +11 +11 прохладно 1016.7 1002.6 +12.6
18 20.05 СЗ 2 10 км {ливн. осадки} 8/8 1000 м
[Sc diur, vesp]
+10.0 +0.6 52 +9 +9 по сезону 1017.9 1003.7
21 20.05 З 1 10 км 5/0
[Ac trans]
+7.3 +2.0 69 +7 +7 прохладно 1018.5 1004.1
00 21.05 СЗ 1 10 км 10/10 600 м
[Sc]
+6.8 +1.9 71 +6 +6 прохладно 1018.8 1004.4
03 21.05 СЗ 1 10 км 4/0
[Ac lent]
+8.7 +1.8 62 +8 +10 прохладно 1019.4 1005.0 +6.4
06 21.05 С 2 10 км 4/4 600 м
[Cu hum]
+12.9 -3.6 32 +13 +19 по сезону 1019.4 1005.3
09 21.05 СЗ 3 10 км 5/0
[Ac trans]
+15.2 -3.1 28 +15 +24 по сезону 1018.4 1004.5

 

Местоположение метеостанции Казань (Татарстан, Россия): широта 55.73 долгота 49.20 высота над уровнем моря 119 м.

В архиве по умолчанию представлена погода в Казани за последнюю неделю. Архивные данные за месяц целиком и за предыдущие месяцы, начиная с января 2011 года, Вы можете получить, выбрав интересующий диапазон дат из раскрывающегося списка и нажав кнопку "Ввод!".


*Определитесь, кто Вы:
робот инопланетянин человек

Внимание! Время в таблицах - всемирное. Для получения местного времени необходимо прибавить поправку, которая равна 3 ч.

Смотрите также архив погоды в соседних городах и на ближайших метеорологических станциях:

Погода в Лаишево (Татарстан, Россия) (40 км)
Погода в Вязовых (Татарстан, Россия) (44 км)
Погода в Арске (Татарстан, Россия) (57 км)
Погода в Камском Устье (Татарстан, Россия) (58 км)
Погода в Больших Кайбицах (Татарстан, Россия) (74 км)
Погода в Алексеевском (Татарстан, Россия) (74 км)
Погода в Морках (Марий-Эл, Россия) (79 км)
Погода в Богатых Сабах (Татарстан, Россия) (84 км)
Погода в Тетюшах (Татарстан, Россия) (91 км)
Погода в Чистополе (Татарстан, Россия) (102 км)

Пояснения к столбцам:

Ветер - указаны скорость ветра в м/с - средняя за 10 мин, порывы в срок и между сроками (в фигурных скобках) и направление, откуда дует ветер: С - северный, СВ - северо-восточный, В - восточный, ЮВ - юго-восточный, Ю - южный, ЮЗ - юго-западный, З - западный, СЗ - северо-западный.
Видимость - горизонтальная дальность видимости в метрах или километрах. При видимости от 1 до 10 км при отсутствии осадков обычно наблюдается дымка, при ухудшении видимости до 1 км и менее - туман. В сухую погоду видимость может ухудшаться дымом, пылью или мглою.
Явления - указаны атмосферные явления, наблюдавшиеся в срок или в последний час перед сроком; фигурными скобками обозначены явления, наблюдавшиеся между сроками (за 1-3 часа до срока); квадратными скобками обозначены град или гололедные отложения с указанием их диаметра в мм.
Облачность - указаны через наклонную черту общая и нижняя облачность в баллах и высота нижней границы облаков в метрах; квадратными скобками обозначены формы облаков: Ci - перистые, Cs - перисто-слоистые, Cc - перисто-кучевые, Ac - высококучевые, As - высокослоистые, Sc - слоисто-кучевые, Ns - слоисто-дождевые, Cu - кучевые, Cb - кучево-дождевые. Подробнее классификацию облаков см. в Атласе облаков (PDF).
T - Температура воздуха - температура, измеренная на высоте 2 м над землей.
Td - Температура точки росы - температура, при понижении до которой содержащийся в воздухе водяной пар достигнет насыщения.
f - Относительная влажность воздуха - влажноcть воздуха, измеренная на высоте 2 м над землей.
Te - Эффективная температура - температура, которую ощущает одетый по сезону человек в тени. Характеристика душности погоды. При расчете учитывается влияние влажности воздуха и скорости ветра на теплоощущения человека.
Tes - Эффективная температура на солнце - температура, которую ощущает человек, с поправкой на солнечный нагрев. Характеристика знойности погоды. Зависит от высоты солнца над горизонтом, облачности и скорости ветра. Ночью, в пасмурную погоду, а также при ветре 12 м/с и более поправка равна нулю.
P - Атмосферное давление - приведенное к уровню моря атмосферное давление.
Po - Атмосферное давление - измеренное на уровне метеостанции атмосферное давление.
Tmin - Минимальная температура - минимум температуры воздуха на высоте 2 м над землей.
Tmax - Максимальная температура - максимум температуры воздуха на высоте 2 м над землей.
R - Количество осадков - Количество выпавших осадков за период времени, мм. При наведении курсора мыши на число - период времени, за который выпало указанное количество осадков.
R24 - Количество осадков - Количество выпавших осадков за 24 часа, мм.
S - Снежный покров - Высота снежного покрова, см. При наведении курсора мыши на число - состояние снежного покрова и степень покрытия местности в баллах.